,,,PA_Meas_PMT16A,,PR_Meas_QMR101_102,,RH_Meas_QMH101,,SR_Meas_QMS101,,TA_Meas_QMH101,,GenWind,,GenWind,
date,time,status,PA,status,PR,status,RH,status,SR,status,TA,status,DirAvg,status,SpdAvg,
2011-08-22, 15:54:04,VALID,998.373,VALID,0,VALID,55.0019,VALID,171.348,VALID,28.8153,VALID,172,VALID,6.41563,
2011-08-22, 15:55:04,VALID,998.455,VALID,0,VALID,55.4521,VALID,168.429,VALID,28.7741,VALID,168,VALID,5.97031,
2011-08-22, 15:56:04,VALID,998.394,VALID,0,VALID,55.5665,VALID,163.601,VALID,28.7567,VALID,159,VALID,6.12969,
2011-08-22, 15:57:04,VALID,998.471,VALID,0,VALID,55.9633,VALID,156.639,VALID,28.6959,VALID,164,VALID,5.20469,
2011-08-22, 15:58:04,VALID,998.438,VALID,0,VALID,56.0396,VALID,148.891,VALID,28.6785,VALID,167,VALID,4.88477,
2011-08-22, 15:59:04,VALID,998.394,VALID,0,VALID,56.0396,VALID,142.603,VALID,28.6177,VALID,162,VALID,6.525,
2011-08-22, 16:00:04,VALID,998.513,VALID,0,VALID,56.3829,VALID,138.449,VALID,28.5396,VALID,162,VALID,5.60508,
2011-08-22, 16:01:04,VALID,998.504,VALID,0,VALID,56.6194,VALID,134.631,VALID,28.5396,VALID,164,VALID,5.95391,
2011-08-22, 16:02:04,VALID,998.478,VALID,0,VALID,56.2379,VALID,131.487,VALID,28.5591,VALID,176,VALID,6.12266,
2011-08-22, 16:03:04,VALID,998.507,VALID,0,VALID,56.7644,VALID,128.006,VALID,28.5591,VALID,166,VALID,5.00469,
2011-08-22, 16:04:04,VALID,998.513,VALID,0,VALID,56.36,VALID,125.199,VALID,28.5787,VALID,165,VALID,4.5293,
2011-08-22, 16:05:04,VALID,998.604,VALID,0,VALID,56.7644,VALID,123.851,VALID,28.5396,VALID,171,VALID,4.74297,
2011-08-22, 16:06:04,VALID,998.544,VALID,0,VALID,56.5431,VALID,122.616,VALID,28.5201,VALID,181,VALID,5.55117,
2011-08-22, 16:07:04,VALID,998.467,VALID,0,VALID,55.9175,VALID,119.697,VALID,28.5787,VALID,175,VALID,7.26914,
2011-08-22, 16:08:04,VALID,998.472,VALID,0,VALID,55.9862,VALID,117.451,VALID,28.6177,VALID,185,VALID,7.41641,
2011-08-22, 16:09:04,VALID,998.486,VALID,0,VALID,56.2074,VALID,116.441,VALID,28.5982,VALID,170,VALID,4.90078,
2011-08-22, 16:10:04,VALID,998.542,VALID,0,VALID,56.9017,VALID,115.879,VALID,28.5787,VALID,175,VALID,4.41836,
2011-08-22, 16:11:04,VALID,998.521,VALID,0,VALID,56.1082,VALID,114.644,VALID,28.5591,VALID,165,VALID,5.34062,
2011-08-22, 16:12:04,VALID,998.517,VALID,0,VALID,56.2227,VALID,112.286,VALID,28.5808,VALID,177,VALID,5.22266,
2011-08-22, 16:13:04,VALID,998.537,VALID,0,VALID,55.8183,VALID,109.928,VALID,28.5808,VALID,160,VALID,5.60898,
2011-08-22, 16:14:04,VALID,998.503,VALID,0,VALID,55.8564,VALID,108.131,VALID,28.5396,VALID,157,VALID,5.70469,
2011-08-22, 16:15:04,VALID,998.477,VALID,0,VALID,55.6886,VALID,106.672,VALID,28.5396,VALID,171,VALID,5.93633,
2011-08-22, 16:16:04,VALID,998.5,VALID,0,VALID,55.475,VALID,105.886,VALID,28.5787,VALID,165,VALID,4.99844,
2011-08-22, 16:17:04,VALID,998.486,VALID,0,VALID,55.3376,VALID,105.324,VALID,28.5787,VALID,168,VALID,5.47969,
2011-08-22, 16:18:04,VALID,998.512,VALID,0,VALID,54.567,VALID,104.763,VALID,28.5591,VALID,174,VALID,6.19219,
2011-08-22, 16:19:04,VALID,998.493,VALID,0,VALID,54.6815,VALID,104.426,VALID,28.6177,VALID,171,VALID,6.30273,
2011-08-22, 16:20:04,VALID,998.476,VALID,0,VALID,54.6052,VALID,102.629,VALID,28.5808,VALID,174,VALID,6.82969,
2011-08-22, 16:21:04,VALID,998.528,VALID,0,VALID,54.3229,VALID,98.8117,VALID,28.5201,VALID,168,VALID,6.69531,
2011-08-22, 16:22:04,VALID,998.501,VALID,0,VALID,54.8265,VALID,93.9834,VALID,28.481,VALID,174,VALID,5.58594,
2011-08-22, 16:23:04,VALID,998.474,VALID,0,VALID,55.1087,VALID,89.2674,VALID,28.5201,VALID,159,VALID,4.73086,
2011-08-22, 16:24:04,VALID,998.51,VALID,0,VALID,55.063,VALID,84.8882,VALID,28.5613,VALID,168,VALID,5.03516,
2011-08-22, 16:25:04,VALID,998.528,VALID,0,VALID,54.0864,VALID,81.9688,VALID,28.6004,VALID,167,VALID,6.1832,
2011-08-22, 16:26:04,VALID,998.495,VALID,0,VALID,53.3921,VALID,80.9582,VALID,28.5418,VALID,182,VALID,8.49375,
2011-08-22, 16:27:04,VALID,998.449,VALID,0,VALID,53.331,VALID,80.9582,VALID,28.583,VALID,161,VALID,7.36797,
2011-08-22, 16:28:04,VALID,998.43,VALID,0,VALID,53.6515,VALID,79.2739,VALID,28.5027,VALID,174,VALID,7.09062,
2011-08-22, 16:29:04,VALID,998.443,VALID,0,VALID,53.331,VALID,76.8036,VALID,28.4831,VALID,177,VALID,6.29727,
2011-08-22, 16:30:04,VALID,998.43,VALID,0,VALID,53.743,VALID,75.1193,VALID,28.5418,VALID,156,VALID,5.39727,
2011-08-22, 16:31:04,VALID,998.441,VALID,0,VALID,53.1937,VALID,74.4456,VALID,28.5222,VALID,171,VALID,6.26289,
2011-08-22, 16:32:04,VALID,998.313,VALID,0,VALID,53.2547,VALID,77.8142,VALID,28.5439,VALID,169,VALID,6.26836,
2011-08-22, 16:33:04,VALID,998.415,VALID,0,VALID,53.5294,VALID,152.821,VALID,28.5027,VALID,182,VALID,6.30859,
2011-08-22, 16:34:04,VALID,998.464,VALID,0,VALID,53.7049,VALID,111.837,VALID,28.5222,VALID,168,VALID,4.70898,
2011-08-22, 16:35:04,VALID,998.409,VALID,0,VALID,53.7659,VALID,85.2251,VALID,28.5027,VALID,158,VALID,4.75391,
2011-08-22, 16:36:04,VALID,998.476,VALID,0,VALID,53.2776,VALID,114.869,VALID,28.5244,VALID,174,VALID,5.39102,
2011-08-22, 16:37:04,VALID,998.465,VALID,0,VALID,53.0106,VALID,121.718,VALID,28.5222,VALID,175,VALID,5.09727,
2011-08-22, 16:38:04,VALID,998.416,VALID,0,VALID,53.1479,VALID,154.842,VALID,28.5439,VALID,175,VALID,5.21133,
2011-08-22, 16:39:04,VALID,998.505,VALID,0,VALID,53.0106,VALID,193.356,VALID,28.6568,VALID,171,VALID,4.675,
2011-08-22, 16:40:04,VALID,998.506,VALID,0,VALID,53.1632,VALID,198.409,VALID,28.7567,VALID,172,VALID,4.16016,
2011-08-22, 16:41:04,VALID,998.548,VALID,0,VALID,52.4536,VALID,200.992,VALID,28.7762,VALID,168,VALID,4.54922,
2011-08-22, 16:42:04,VALID,998.53,VALID,0,VALID,52.5528,VALID,165.397,VALID,28.7741,VALID,163,VALID,5.09805,
2011-08-22, 16:43:04,VALID,998.568,VALID,0,VALID,52.6978,VALID,89.2674,VALID,28.8131,VALID,173,VALID,4.40898,
2011-08-22, 16:44:04,VALID,998.549,VALID,0,VALID,52.3697,VALID,145.41,VALID,28.8349,VALID,166,VALID,5.75703,
2011-08-22, 16:45:04,VALID,998.575,VALID,0,VALID,52.2934,VALID,176.289,VALID,28.7936,VALID,166,VALID,4.47656,
2011-08-22, 16:46:04,VALID,998.594,VALID,0,VALID,51.828,VALID,173.033,VALID,28.8718,VALID,177,VALID,5.01055,
2011-08-22, 16:47:04,VALID,998.602,VALID,0,VALID,51.3092,VALID,145.41,VALID,28.9108,VALID,180,VALID,6.76016,
2011-08-22, 16:48:04,VALID,998.675,VALID,0,VALID,51.355,VALID,146.084,VALID,28.9521,VALID,166,VALID,5.77773,
2011-08-22, 16:49:04,VALID,998.562,VALID,0,VALID,50.7446,VALID,116.777,VALID,28.9912,VALID,164,VALID,5.17031,
2011-08-22, 16:50:04,VALID,998.637,VALID,0,VALID,50.5539,VALID,77.4773,VALID,28.9912,VALID,178,VALID,6.34062,
2011-08-22, 16:51:04,VALID,998.684,VALID,0,VALID,50.4242,VALID,141.705,VALID,28.9326,VALID,171,VALID,5.60039,
2011-08-22, 16:52:04,VALID,998.802,VALID,0,VALID,51.0116,VALID,64.2276,VALID,28.9326,VALID,175,VALID,7.68867,
2011-08-22, 16:53:04,VALID,998.827,VALID,0,VALID,50.5233,VALID,111.612,VALID,28.9108,VALID,173,VALID,6.11055,
2011-08-22, 16:54:04,VALID,998.858,VALID,0,VALID,50.9506,VALID,53.6727,VALID,28.9717,VALID,167,VALID,5.84961,
2011-08-22, 16:55:04,VALID,998.838,VALID,0,VALID,51.1185,VALID,51.0901,VALID,28.8544,VALID,170,VALID,6.66406,
2011-08-22, 16:56:04,VALID,998.942,VALID,0,VALID,51.6144,VALID,50.9778,VALID,28.8153,VALID,161,VALID,5.8168,
2011-08-22, 16:57:04,VALID,998.902,VALID,0,VALID,51.828,VALID,55.8061,VALID,28.7372,VALID,169,VALID,4.47813,
2011-08-22, 16:58:04,VALID,998.936,VALID,0,VALID,51.889,VALID,117.563,VALID,28.7176,VALID,166,VALID,5.68672,
2011-08-22, 16:59:04,VALID,998.941,VALID,0,VALID,52.0264,VALID,123.515,VALID,28.6981,VALID,174,VALID,6.51406,
2011-08-22, 17:00:04,VALID,998.969,VALID,0,VALID,51.7822,VALID,120.595,VALID,28.7372,VALID,175,VALID,5.97813,
2011-08-22, 17:01:04,VALID,998.963,VALID,0,VALID,52.095,VALID,111.163,VALID,28.7762,VALID,179,VALID,6.52656,
2011-08-22, 17:02:04,VALID,998.964,VALID,0,VALID,52.0111,VALID,113.184,VALID,28.7762,VALID,170,VALID,6.20117,
2011-08-22, 17:03:04,VALID,998.975,VALID,0,VALID,52.1179,VALID,108.244,VALID,28.7762,VALID,174,VALID,6.10586,
2011-08-22, 17:04:04,VALID,998.958,VALID,0,VALID,52.6444,VALID,109.254,VALID,28.7372,VALID,167,VALID,5.60156,
2011-08-22, 17:05:04,VALID,998.96,VALID,0,VALID,52.2553,VALID,111.163,VALID,28.7176,VALID,179,VALID,6.78086,
2011-08-22, 17:06:04,VALID,998.936,VALID,0,VALID,52.4231,VALID,106.559,VALID,28.6785,VALID,176,VALID,5.90234,
2011-08-22, 17:07:04,VALID,999.051,VALID,0,VALID,52.8504,VALID,70.9648,VALID,28.659,VALID,177,VALID,6.47539,
2011-08-22, 17:08:04,VALID,999.046,VALID,0,VALID,52.7741,VALID,90.0534,VALID,28.6981,VALID,176,VALID,5.32969,
2011-08-22, 17:09:04,VALID,999.027,VALID,0,VALID,52.8504,VALID,50.4164,VALID,28.7176,VALID,178,VALID,6.4207,
2011-08-22, 17:10:04,VALID,999.062,VALID,0,VALID,52.7817,VALID,63.8907,VALID,28.659,VALID,178,VALID,6.72891,
2011-08-22, 17:11:04,VALID,999.01,VALID,0,VALID,52.8428,VALID,76.579,VALID,28.5808,VALID,180,VALID,6.32891,
2011-08-22, 17:12:04,VALID,999.138,VALID,0,VALID,53.4607,VALID,80.8459,VALID,28.5613,VALID,163,VALID,5.76602,
2011-08-22, 17:13:04,VALID,999.07,VALID,0,VALID,53.1479,VALID,54.1218,VALID,28.4831,VALID,174,VALID,7.08906,
2011-08-22, 17:14:04,VALID,999.11,VALID,0,VALID,53.5523,VALID,52.3253,VALID,28.4419,VALID,184,VALID,6.55703,
2011-08-22, 17:15:04,VALID,999.106,VALID,0,VALID,53.2395,VALID,70.9648,VALID,28.5005,VALID,180,VALID,7.98555,
2011-08-22, 17:16:04,VALID,999.16,VALID,0,VALID,53.4379,VALID,84.4391,VALID,28.4831,VALID,167,VALID,6.07305,
2011-08-22, 17:17:04,VALID,999.223,VALID,0,VALID,53.7278,VALID,75.1193,VALID,28.4441,VALID,175,VALID,6.71445,
2011-08-22, 17:18:04,VALID,999.207,VALID,0,VALID,53.476,VALID,69.9542,VALID,28.3854,VALID,172,VALID,7.66445,
2011-08-22, 17:19:04,VALID,999.208,VALID,0,VALID,54.1169,VALID,68.0453,VALID,28.3247,VALID,168,VALID,7.66445,
2011-08-22, 17:20:04,VALID,999.274,VALID,0,VALID,54.3839,VALID,68.719,VALID,28.3464,VALID,181,VALID,6.98633,
2011-08-22, 17:21:04,VALID,999.28,VALID,0,VALID,54.0635,VALID,65.575,VALID,28.3659,VALID,175,VALID,6.11953,
2011-08-22, 17:22:04,VALID,999.258,VALID,0,VALID,53.9338,VALID,62.5433,VALID,28.3247,VALID,175,VALID,7.63086,
2011-08-22, 17:23:04,VALID,999.352,VALID,0,VALID,54.2237,VALID,60.073,VALID,28.3051,VALID,176,VALID,6.78711,
2011-08-22, 17:24:04,VALID,999.357,VALID,0,VALID,54.2085,VALID,56.3676,VALID,28.3051,VALID,172,VALID,6.69141,
2011-08-22, 17:25:04,VALID,999.419,VALID,0,VALID,54.3382,VALID,52.6621,VALID,28.2856,VALID,180,VALID,6.03164,
2011-08-22, 17:26:04,VALID,999.391,VALID,0,VALID,54.2085,VALID,48.6198,VALID,28.3051,VALID,168,VALID,5.11328,
2011-08-22, 17:27:04,VALID,999.403,VALID,0,VALID,53.6667,VALID,44.6898,VALID,28.3638,VALID,178,VALID,6.61094,
2011-08-22, 17:28:04,VALID,999.371,VALID,0,VALID,53.621,VALID,40.8721,VALID,28.3638,VALID,173,VALID,6.15703,
2011-08-22, 17:29:04,VALID,999.4,VALID,0,VALID,53.6286,VALID,36.8298,VALID,28.3464,VALID,181,VALID,7.64141,
2011-08-22, 17:30:04,VALID,999.368,VALID,0,VALID,54.0253,VALID,32.0015,VALID,28.2856,VALID,172,VALID,6.60195,
2011-08-22, 17:31:04,VALID,999.429,VALID,0,VALID,54.1703,VALID,25.8258,VALID,28.2487,VALID,181,VALID,5.20703,
2011-08-22, 17:32:04,VALID,999.376,VALID,0,VALID,54.0482,VALID,22.1203,VALID,28.2682,VALID,192,VALID,6.92656,
2011-08-22, 17:33:04,VALID,999.478,VALID,0,VALID,54.2847,VALID,21.6712,VALID,28.2487,VALID,180,VALID,5.9293,
2011-08-22, 17:34:04,VALID,999.438,VALID,0,VALID,53.9567,VALID,22.2326,VALID,28.2291,VALID,171,VALID,6.00977,
2011-08-22, 17:35:04,VALID,999.466,VALID,0,VALID,54.3534,VALID,21.3343,VALID,28.1901,VALID,179,VALID,5.35195,
2011-08-22, 17:36:04,VALID,999.57,VALID,0,VALID,54.361,VALID,20.0992,VALID,28.1901,VALID,184,VALID,6.30039,
2011-08-22, 17:37:04,VALID,999.495,VALID,0,VALID,54.1703,VALID,19.5378,VALID,28.1293,VALID,180,VALID,6.61914,
2011-08-22, 17:38:04,VALID,999.55,VALID,0,VALID,54.3839,VALID,19.3132,VALID,28.1293,VALID,179,VALID,6.70078,
2011-08-22, 17:39:04,VALID,999.469,VALID,0,VALID,54.3,VALID,19.3132,VALID,28.151,VALID,174,VALID,6.57734,
2011-08-22, 17:40:04,VALID,999.541,VALID,0,VALID,54.3382,VALID,18.1903,VALID,28.1315,VALID,162,VALID,5.89805,
2011-08-22, 17:41:04,VALID,999.592,VALID,0,VALID,53.8575,VALID,16.0569,VALID,28.0902,VALID,176,VALID,7.26172,
2011-08-22, 17:42:04,VALID,999.546,VALID,0,VALID,53.8346,VALID,15.3832,VALID,28.1293,VALID,202,VALID,6.23516,
2011-08-22, 17:43:04,VALID,999.626,VALID,0,VALID,54.2008,VALID,14.148,VALID,28.0902,VALID,176,VALID,6.54219,
2011-08-22, 17:44:04,VALID,999.623,VALID,0,VALID,54.094,VALID,12.3515,VALID,28.1293,VALID,181,VALID,6.15,
2011-08-22, 17:45:04,VALID,999.643,VALID,0,VALID,53.8422,VALID,10.6672,VALID,28.1315,VALID,181,VALID,7.19453,
2011-08-22, 17:46:04,VALID,999.639,VALID,0,VALID,53.9262,VALID,9.09517,VALID,28.1315,VALID,178,VALID,5.39258,
2011-08-22, 17:47:04,VALID,999.645,VALID,0,VALID,54.1779,VALID,8.19688,VALID,28.0902,VALID,178,VALID,6.01914,
2011-08-22, 17:48:04,VALID,999.651,VALID,0,VALID,54.3305,VALID,7.41088,VALID,28.0707,VALID,184,VALID,5.84297,
2011-08-22, 17:49:04,VALID,999.643,VALID,0,VALID,54.712,VALID,6.73716,VALID,28.0533,VALID,175,VALID,5.85859,
2011-08-22, 17:50:04,VALID,999.638,VALID,0,VALID,54.9027,VALID,6.06344,VALID,28.0533,VALID,188,VALID,6.06914,
2011-08-22, 17:51:04,VALID,999.622,VALID,0,VALID,55.124,VALID,5.72659,VALID,27.973,VALID,181,VALID,6.26484,
2011-08-22, 17:52:04,VALID,999.653,VALID,0,VALID,55.391,VALID,5.38973,VALID,27.9752,VALID,166,VALID,5.78398,
2011-08-22, 17:53:04,VALID,999.586,VALID,0,VALID,55.2156,VALID,4.94058,VALID,27.9535,VALID,181,VALID,7.02031,
2011-08-22, 17:54:04,VALID,999.61,VALID,0,VALID,55.4445,VALID,4.49144,VALID,27.9165,VALID,184,VALID,5.86445,
2011-08-22, 17:55:04,VALID,999.623,VALID,0,VALID,55.5742,VALID,3.93001,VALID,27.8949,VALID,177,VALID,5.57852,
2011-08-22, 17:56:04,VALID,999.641,VALID,0,VALID,55.2919,VALID,3.03172,VALID,27.9361,VALID,176,VALID,6.23711,
2011-08-22, 17:57:04,VALID,999.668,VALID,0,VALID,55.4368,VALID,2.02115,VALID,27.9165,VALID,181,VALID,5.88398,
2011-08-22, 17:58:04,VALID,999.655,VALID,0,VALID,55.391,VALID,1.45972,VALID,27.8949,VALID,176,VALID,5.01055,
2011-08-22, 17:59:04,VALID,999.669,VALID,0,VALID,55.4063,VALID,1.12286,VALID,27.8949,VALID,185,VALID,5.44961,
2011-08-22, 18:00:04,VALID,999.671,VALID,0,VALID,55.063,VALID,1.01057,VALID,27.9535,VALID,174,VALID,6.54063,
2011-08-22, 18:01:04,VALID,999.644,VALID,0,VALID,55.063,VALID,0.786002,VALID,27.9947,VALID,175,VALID,6.25156,
2011-08-22, 18:02:04,VALID,999.706,VALID,0,VALID,55.3987,VALID,0.56143,VALID,27.9361,VALID,188,VALID,4.87109,
2011-08-22, 18:03:04,VALID,999.649,VALID,0,VALID,55.5055,VALID,0.336858,VALID,27.8949,VALID,173,VALID,4.74727,
2011-08-22, 18:04:04,VALID,999.73,VALID,0,VALID,55.9556,VALID,0.336858,VALID,27.8363,VALID,174,VALID,4.29141,
2011-08-22, 18:05:04,VALID,999.727,VALID,0,VALID,55.9862,VALID,0.224572,VALID,27.8168,VALID,184,VALID,3.86914,
2011-08-22, 18:06:04,VALID,999.731,VALID,0,VALID,55.7267,VALID,0.112286,VALID,27.8189,VALID,181,VALID,4.55273,
2011-08-22, 18:07:04,VALID,999.723,VALID,0,VALID,55.7344,VALID,0,VALID,27.7993,VALID,175,VALID,5.47578,
2011-08-22, 18:08:04,VALID,999.723,VALID,0,VALID,55.8564,VALID,0.112286,VALID,27.7993,VALID,168,VALID,4.34844,
2011-08-22, 18:09:04,VALID,999.773,VALID,0,VALID,56.0701,VALID,0,VALID,27.7407,VALID,166,VALID,4.26055,
2011-08-22, 18:10:04,VALID,999.782,VALID,0,VALID,56.5279,VALID,0,VALID,27.6821,VALID,169,VALID,2.86602,
2011-08-22, 18:11:04,VALID,999.804,VALID,0,VALID,56.7567,VALID,0,VALID,27.6235,VALID,175,VALID,3.60234,
2011-08-22, 18:12:04,VALID,999.792,VALID,0,VALID,56.2532,VALID,0,VALID,27.604,VALID,162,VALID,4.47266,
2011-08-22, 18:13:04,VALID,999.755,VALID,0,VALID,56.2761,VALID,0,VALID,27.604,VALID,173,VALID,4.15234,
2011-08-22, 18:14:04,VALID,999.716,VALID,0,VALID,56.0396,VALID,0,VALID,27.5649,VALID,164,VALID,4.04297,
2011-08-22, 18:15:04,VALID,999.702,VALID,0,VALID,55.7954,VALID,0,VALID,27.6019,VALID,174,VALID,5.8125,
2011-08-22, 18:16:04,VALID,999.705,VALID,0,VALID,55.887,VALID,0,VALID,27.6626,VALID,165,VALID,4.79102,
2011-08-22, 18:17:04,VALID,999.724,VALID,0,VALID,55.8412,VALID,0,VALID,27.6235,VALID,167,VALID,4.8125,
2011-08-22, 18:18:04,VALID,999.73,VALID,0,VALID,55.8336,VALID,0,VALID,27.6431,VALID,173,VALID,4.24375,
2011-08-22, 18:19:04,VALID,999.745,VALID,0,VALID,55.7191,VALID,0,VALID,27.6235,VALID,168,VALID,4.71719,
2011-08-22, 18:20:04,VALID,999.775,VALID,0,VALID,55.7039,VALID,0,VALID,27.604,VALID,162,VALID,5.27734,
2011-08-22, 18:21:04,VALID,999.789,VALID,0,VALID,55.5818,VALID,0,VALID,27.5824,VALID,166,VALID,4.3,
2011-08-22, 18:22:04,VALID,999.832,VALID,0,VALID,55.9785,VALID,0,VALID,27.5845,VALID,174,VALID,3.25703,
2011-08-22, 18:23:04,VALID,999.779,VALID,0,VALID,55.803,VALID,0,VALID,27.5845,VALID,181,VALID,5.60234,
2011-08-22, 18:24:04,VALID,999.803,VALID,0,VALID,55.7954,VALID,0,VALID,27.5454,VALID,181,VALID,3.8332,
2011-08-22, 18:25:04,VALID,999.82,VALID,0,VALID,55.9938,VALID,0,VALID,27.5258,VALID,173,VALID,3.79766,
2011-08-22, 18:26:04,VALID,999.862,VALID,0,VALID,55.9251,VALID,0,VALID,27.5454,VALID,171,VALID,5.02266,
2011-08-22, 18:27:04,VALID,999.874,VALID,0,VALID,55.7878,VALID,0,VALID,27.5454,VALID,174,VALID,4.35664,
2011-08-22, 18:28:04,VALID,999.882,VALID,0,VALID,55.6657,VALID,0,VALID,27.5454,VALID,171,VALID,3.59961,
2011-08-22, 18:29:04,VALID,999.906,VALID,0,VALID,55.7496,VALID,0,VALID,27.5258,VALID,167,VALID,4.80742,
2011-08-22, 18:30:04,VALID,999.926,VALID,0,VALID,55.7573,VALID,0,VALID,27.5063,VALID,173,VALID,4.26797,
2011-08-22, 18:31:04,VALID,999.981,VALID,0,VALID,56.0167,VALID,0,VALID,27.5454,VALID,187,VALID,4.48125,
2011-08-22, 18:32:04,VALID,999.99,VALID,0,VALID,55.1469,VALID,0,VALID,27.604,VALID,175,VALID,5.0668,
2011-08-22, 18:33:04,VALID,999.99,VALID,0,VALID,54.9485,VALID,0,VALID,27.6431,VALID,173,VALID,5.45977,
2011-08-22, 18:34:04,VALID,1000.01,VALID,0,VALID,55.124,VALID,0,VALID,27.6626,VALID,180,VALID,5.32188,
2011-08-22, 18:35:04,VALID,999.99,VALID,0,VALID,55.1164,VALID,0,VALID,27.6019,VALID,169,VALID,4.95977,
2011-08-22, 18:36:04,VALID,1000.06,VALID,0,VALID,55.2613,VALID,0,VALID,27.5845,VALID,167,VALID,4.37656,
2011-08-22, 18:37:04,VALID,1000.08,VALID,0,VALID,55.475,VALID,0,VALID,27.5433,VALID,168,VALID,4.57109,
2011-08-22, 18:38:04,VALID,999.987,VALID,0,VALID,55.063,VALID,0,VALID,27.5238,VALID,172,VALID,6.68906,
2011-08-22, 18:39:04,VALID,1000.11,VALID,0,VALID,55.1011,VALID,0,VALID,27.6061,VALID,178,VALID,6.65195,
2011-08-22, 18:40:04,VALID,1000.02,VALID,0,VALID,54.9943,VALID,0,VALID,27.5845,VALID,161,VALID,6.10234,
2011-08-22, 18:41:04,VALID,1000.06,VALID,0,VALID,55.0325,VALID,0,VALID,27.567,VALID,177,VALID,6.04922,
2011-08-22, 18:42:04,VALID,1000.13,VALID,0,VALID,55.3453,VALID,0,VALID,27.5475,VALID,163,VALID,5.30859,
2011-08-22, 18:43:04,VALID,1000.17,VALID,0,VALID,55.3376,VALID,0,VALID,27.567,VALID,162,VALID,7.33203,
2011-08-22, 18:44:04,VALID,1000.13,VALID,0,VALID,55.2919,VALID,0,VALID,27.567,VALID,175,VALID,5.95234,
2011-08-22, 18:45:04,VALID,1000.11,VALID,0,VALID,55.0553,VALID,0,VALID,27.6256,VALID,184,VALID,5.78203,
2011-08-22, 18:46:04,VALID,1000.16,VALID,0,VALID,55.124,VALID,0,VALID,27.6235,VALID,182,VALID,5.08437,
2011-08-22, 18:47:04,VALID,1000.2,VALID,0,VALID,55.2003,VALID,0,VALID,27.6256,VALID,178,VALID,5.13047,
2011-08-22, 18:48:04,VALID,1000.13,VALID,0,VALID,54.7883,VALID,0,VALID,27.604,VALID,176,VALID,6.47031,
2011-08-22, 18:49:04,VALID,1000.22,VALID,0,VALID,54.9714,VALID,0,VALID,27.6647,VALID,182,VALID,5.8125,
2011-08-22, 18:50:04,VALID,1000.23,VALID,0,VALID,54.9714,VALID,0,VALID,27.6842,VALID,181,VALID,5.58047,
2011-08-22, 18:51:04,VALID,1000.24,VALID,0,VALID,54.9485,VALID,0,VALID,27.6842,VALID,172,VALID,6.06016,
2011-08-22, 18:52:04,VALID,1000.28,VALID,0,VALID,55.1087,VALID,0,VALID,27.6452,VALID,173,VALID,4.99961,
2011-08-22, 18:53:04,VALID,1000.37,VALID,0,VALID,55.3987,VALID,0,VALID,27.5865,VALID,175,VALID,5.6043,
2011-08-22, 18:54:04,VALID,1000.37,VALID,0,VALID,55.6047,VALID,0,VALID,27.5649,VALID,167,VALID,6.61367,
2011-08-22, 18:55:04,VALID,1000.42,VALID,0,VALID,55.4063,VALID,0,VALID,27.5845,VALID,169,VALID,5.59414,
2011-08-22, 18:56:04,VALID,1000.42,VALID,0,VALID,55.3529,VALID,0,VALID,27.5845,VALID,164,VALID,6.05039,
2011-08-22, 18:57:04,VALID,1000.44,VALID,0,VALID,55.5131,VALID,0,VALID,27.5433,VALID,164,VALID,6.51523,
2011-08-22, 18:58:04,VALID,1000.47,VALID,0,VALID,55.0706,VALID,0,VALID,27.5454,VALID,176,VALID,7.45078,
2011-08-22, 18:59:04,VALID,1000.51,VALID,0,VALID,55.6428,VALID,0,VALID,27.5454,VALID,173,VALID,5.72422,
2011-08-22, 19:00:04,VALID,1000.52,VALID,0,VALID,55.2766,VALID,0,VALID,27.5649,VALID,178,VALID,5.93047,
2011-08-22, 19:01:04,VALID,1000.55,VALID,0,VALID,55.124,VALID,0,VALID,27.604,VALID,182,VALID,6.33281,
2011-08-22, 19:02:04,VALID,1000.53,VALID,0,VALID,55.1622,VALID,0,VALID,27.604,VALID,176,VALID,6.7457,
2011-08-22, 19:03:04,VALID,1000.59,VALID,0,VALID,55.5131,VALID,0,VALID,27.5649,VALID,179,VALID,6.52773,
2011-08-22, 19:04:04,VALID,1000.59,VALID,0,VALID,55.4673,VALID,0,VALID,27.604,VALID,181,VALID,8.31367,
2011-08-22, 19:05:04,VALID,1000.63,VALID,0,VALID,55.3071,VALID,0,VALID,27.604,VALID,178,VALID,6.4875,
2011-08-22, 19:06:04,VALID,1000.63,VALID,0,VALID,55.391,VALID,0,VALID,27.6235,VALID,174,VALID,7.175,
2011-08-22, 19:07:04,VALID,1000.61,VALID,0,VALID,55.4216,VALID,0,VALID,27.5824,VALID,181,VALID,5.93203,
2011-08-22, 19:08:04,VALID,1000.68,VALID,0,VALID,55.5589,VALID,0,VALID,27.5824,VALID,185,VALID,5.8168,
2011-08-22, 19:09:04,VALID,1000.66,VALID,0,VALID,55.5207,VALID,0,VALID,27.6061,VALID,193,VALID,4.93437,
2011-08-22, 19:10:04,VALID,1000.72,VALID,0,VALID,55.7496,VALID,0,VALID,27.5258,VALID,179,VALID,5.03047,
2011-08-22, 19:11:04,VALID,1000.76,VALID,0,VALID,55.681,VALID,0,VALID,27.5454,VALID,191,VALID,4.6332,
2011-08-22, 19:12:04,VALID,1000.73,VALID,0,VALID,55.7344,VALID,0,VALID,27.5865,VALID,188,VALID,5.45586,
2011-08-22, 19:13:04,VALID,1000.78,VALID,0,VALID,55.8183,VALID,0,VALID,27.5649,VALID,181,VALID,6.67148,
2011-08-22, 19:14:04,VALID,1000.76,VALID,0,VALID,55.5436,VALID,0,VALID,27.5649,VALID,175,VALID,6.39023,
2011-08-22, 19:15:04,VALID,1000.78,VALID,0,VALID,55.5818,VALID,0,VALID,27.5865,VALID,186,VALID,7.26953,
2011-08-22, 19:16:04,VALID,1000.78,VALID,0,VALID,55.887,VALID,0,VALID,27.5084,VALID,202,VALID,3.46797,
2011-08-22, 19:17:04,VALID,1000.86,VALID,0,VALID,56.3905,VALID,0,VALID,27.4498,VALID,187,VALID,3.70547,
2011-08-22, 19:18:04,VALID,1000.82,VALID,0,VALID,56.0701,VALID,0,VALID,27.4086,VALID,186,VALID,4.87031,
2011-08-22, 19:19:04,VALID,1000.84,VALID,0,VALID,55.4902,VALID,0,VALID,27.4672,VALID,178,VALID,6.60039,
2011-08-22, 19:20:04,VALID,1000.87,VALID,0,VALID,55.2079,VALID,0,VALID,27.5475,VALID,173,VALID,8.16328,
2011-08-22, 19:21:04,VALID,1000.96,VALID,0,VALID,55.0553,VALID,0,VALID,27.6061,VALID,180,VALID,5.80469,
2011-08-22, 19:22:04,VALID,1000.9,VALID,0,VALID,54.7349,VALID,0,VALID,27.6842,VALID,190,VALID,7.70391,
2011-08-22, 19:23:04,VALID,1000.95,VALID,0,VALID,54.712,VALID,0,VALID,27.7038,VALID,172,VALID,5.5668,
2011-08-22, 19:24:04,VALID,1000.95,VALID,0,VALID,54.567,VALID,0,VALID,27.6452,VALID,200,VALID,7.2293,
2011-08-22, 19:25:04,VALID,1001,VALID,0,VALID,54.9027,VALID,0,VALID,27.6061,VALID,178,VALID,7.14141,
2011-08-22, 19:26:04,VALID,1001.04,VALID,0,VALID,54.8188,VALID,0,VALID,27.567,VALID,185,VALID,7.41133,
2011-08-22, 19:27:04,VALID,1001.07,VALID,0,VALID,54.9256,VALID,0,VALID,27.567,VALID,192,VALID,8.42891,
2011-08-22, 19:28:04,VALID,1001.14,VALID,0,VALID,54.8188,VALID,0,VALID,27.5454,VALID,190,VALID,8.35117,
2011-08-22, 19:29:04,VALID,1000.92,VALID,0,VALID,54.1245,VALID,0,VALID,27.5475,VALID,170,VALID,8.75117,
2011-08-22, 19:30:04,VALID,1001.17,VALID,0,VALID,54.8188,VALID,0,VALID,27.5865,VALID,193,VALID,5.68867,
2011-08-22, 19:31:04,VALID,1001.15,VALID,0,VALID,54.3687,VALID,0,VALID,27.567,VALID,183,VALID,8.70469,
2011-08-22, 19:32:04,VALID,1001.16,VALID,0,VALID,54.2695,VALID,0,VALID,27.5865,VALID,183,VALID,6.77539,
2011-08-22, 19:33:04,VALID,1001.18,VALID,0,VALID,54.3458,VALID,0,VALID,27.567,VALID,190,VALID,6.81367,